| time (UTC) | temp F | wind direction | speed MPH | gust MPH | rain 1hr in | rain 24hr in | rain mn in | humidity % | barometer mb |
| 20260904134607 | 78 | 0 | 0.0 | 4.0 | 0.00 | 0.16 | 0.16 | 90 | 1014.4 |
| 20260904133105 | 78 | 0 | 0.0 | 4.0 | 0.00 | 0.16 | 0.16 | 90 | 1014.3 |
| 20260904131605 | 77 | 0 | 0.0 | 6.0 | 0.00 | 0.16 | 0.16 | 91 | 1014.1 |
| 20260904130104 | 77 | 0 | 0.0 | 0.0 | 0.00 | 0.16 | 0.16 | 91 | 1014.0 |
| 20260904124600 | 77 | 0 | 0.0 | 0.0 | 0.00 | 0.16 | 0.16 | 91 | 1013.8 |
| 20260904123102 | 77 | 0 | 0.0 | 0.0 | 0.00 | 0.16 | 0.16 | 92 | 1013.5 |
| 20260904121558 | 77 | 0 | 0.0 | 2.0 | 0.00 | 0.16 | 0.16 | 91 | 1013.5 |
| 20260904120110 | 77 | 0 | 0.0 | 3.0 | 0.00 | 0.16 | 0.16 | 92 | 1013.3 |
| 20260904114600 | 76 | 0 | 0.0 | 0.0 | 0.00 | 0.16 | 0.16 | 91 | 1013.3 |
| 20260904113108 | 77 | 0 | 0.0 | 0.0 | 0.00 | 0.16 | 0.16 | 92 | 1013.2 |
| 20260904111558 | 77 | 0 | 0.0 | 0.0 | 0.00 | 0.16 | 0.16 | 91 | 1013.1 |
| 20260904110101 | 76 | 0 | 0.0 | 0.0 | 0.00 | 0.16 | 0.16 | 91 | 1013.2 |
| 20260904104602 | 76 | 0 | 0.0 | 0.0 | 0.00 | 0.16 | 0.16 | 92 | 1013.1 |
| 20260904103104 | 76 | 0 | 0.0 | 0.0 | 0.00 | 0.16 | 0.16 | 92 | 1013.1 |
| 20260904101602 | 76 | 0 | 0.0 | 0.0 | 0.00 | 0.16 | 0.16 | 92 | 1012.9 |
| 20260904100059 | 76 | 0 | 0.0 | 3.0 | 0.00 | 0.16 | 0.16 | 92 | 1013.1 |
| 20260904094611 | 76 | 0 | 0.0 | 0.0 | 0.00 | 0.16 | 0.16 | 92 | 1012.9 |
| 20260904093114 | 76 | 0 | 0.0 | 5.0 | 0.00 | 0.16 | 0.16 | 92 | 1012.7 |
| 20260904091600 | 76 | 0 | 0.0 | 5.0 | 0.00 | 0.16 | 0.16 | 92 | 1012.7 |
| 20260904084601 | 76 | 0 | 0.0 | 7.0 | 0.00 | 0.16 | 0.16 | 92 | 1012.6 |
| 20260904083103 | 76 | 0 | 0.0 | 6.0 | 0.00 | 0.16 | 0.16 | 92 | 1012.6 |
| 20260904081558 | 76 | 0 | 0.0 | 5.0 | 0.00 | 0.16 | 0.16 | 92 | 1012.7 |
| 20260904080101 | 76 | 223 | 0.0 | 2.0 | 0.00 | 0.16 | 0.16 | 93 | 1012.7 |
| 20260904074605 | 76 | 209 | 0.0 | 5.0 | 0.00 | 0.16 | 0.16 | 93 | 1012.7 |
| 20260904073101 | 76 | 0 | 0.0 | 4.0 | 0.00 | 0.16 | 0.16 | 93 | 1012.8 |
| 20260904071601 | 75 | 0 | 0.0 | 9.0 | 0.00 | 0.16 | 0.16 | 92 | 1012.9 |
| 20260904070104 | 75 | 200 | 0.0 | 4.0 | 0.01 | 0.16 | 0.16 | 92 | 1012.8 |
| 20260904064601 | 75 | 0 | 0.0 | 1.0 | 0.05 | 0.16 | 0.16 | 92 | 1013.1 |
| 20260904063103 | 75 | 0 | 0.0 | 1.0 | 0.16 | 0.16 | 0.16 | 92 | 1013.1 |
| 20260904061605 | 76 | 0 | 0.0 | 6.0 | 0.16 | 0.16 | 0.16 | 91 | 1013.0 |
| 20260904054605 | 77 | 0 | 0.0 | 6.0 | 0.10 | 0.10 | 0.10 | 88 | 1013.2 |
| 20260904053139 | 78 | 0 | 0.0 | 10.0 | 0.00 | 0.00 | 0.00 | 85 | 1013.4 |
| 20260904051601 | 79 | 0 | 0.0 | 11.0 | 0.00 | 0.00 | 0.00 | 81 | 1013.0 |
| 20260904050115 | 80 | 0 | 1.0 | 11.0 | 0.00 | 0.00 | 0.00 | 76 | 1012.9 |
| 20260904044559 | 80 | 0 | 2.0 | 11.0 | 0.00 | 0.00 | 0.00 | 74 | 1013.2 |
| 20260904043059 | 80 | 0 | 2.0 | 10.0 | 0.00 | 0.00 | 0.00 | 73 | 1013.1 |
| 20260904041606 | 81 | 108 | 2.0 | 15.0 | 0.00 | 0.00 | 0.00 | 72 | 1012.9 |
| 20260904040105 | 81 | 0 | 1.0 | 12.0 | 0.00 | 0.00 | 0.00 | 72 | 1013.0 |
| 20260904034605 | 81 | 101 | 1.0 | 7.0 | 0.00 | 0.00 | 0.00 | 71 | 1013.1 |
| 20260904033118 | 81 | 0 | 2.0 | 10.0 | 0.00 | 0.00 | 0.00 | 69 | 1012.9 |
| 20260904031559 | 81 | 0 | 1.0 | 7.0 | 0.00 | 0.00 | 0.00 | 68 | 1012.8 |
| 20260904024605 | 82 | 0 | 2.0 | 10.0 | 0.00 | 0.00 | 0.00 | 67 | 1012.6 |
| 20260904023059 | 82 | 114 | 1.0 | 9.0 | 0.00 | 0.00 | 0.00 | 66 | 1012.4 |
| 20260904021601 | 83 | 0 | 1.0 | 10.0 | 0.00 | 0.00 | 0.00 | 66 | 1012.2 |
| 20260904020111 | 83 | 105 | 1.0 | 8.0 | 0.00 | 0.00 | 0.00 | 65 | 1011.9 |
| 20260904014648 | 84 | 98 | 0.0 | 10.0 | 0.00 | 0.00 | 0.00 | 63 | 1011.7 |
| 20260904013111 | 84 | 118 | 1.0 | 11.0 | 0.00 | 0.00 | 0.00 | 61 | 1011.5 |
| 20260904011606 | 85 | 105 | 0.0 | 9.0 | 0.00 | 0.00 | 0.00 | 61 | 1011.3 |
| 20260904010105 | 86 | 0 | 3.0 | 10.0 | 0.00 | 0.00 | 0.00 | 60 | 1010.9 |
| 20260904004601 | 86 | 0 | 1.0 | 11.0 | 0.00 | 0.00 | 0.00 | 61 | 1011.0 |
| 20260904003116 | 87 | 115 | 3.0 | 16.0 | 0.00 | 0.00 | 0.00 | 61 | 1011.0 |
| 20260904001600 | 88 | 106 | 4.0 | 12.0 | 0.00 | 0.00 | 0.00 | 61 | 1010.8 |
| 20260904000053 | 89 | 153 | 2.0 | 11.0 | 0.00 | 0.00 | 0.00 | 59 | 1010.7 |
| 20260903234612 | 90 | 85 | 4.0 | 13.0 | 0.00 | 0.00 | 0.00 | 59 | 1010.8 |
| 20260903233059 | 91 | 90 | 2.0 | 14.0 | 0.00 | 0.00 | 0.00 | 60 | 1010.5 |
| 20260903231600 | 91 | 95 | 3.0 | 10.0 | 0.00 | 0.00 | 0.00 | 60 | 1010.3 |
| 20260903230109 | 91 | 110 | 3.0 | 10.0 | 0.00 | 0.00 | 0.00 | 59 | 1010.4 |
| 20260903224559 | 91 | 105 | 1.0 | 14.0 | 0.00 | 0.00 | 0.00 | 60 | 1010.4 |
| 20260903223101 | 91 | 147 | 3.0 | 11.0 | 0.00 | 0.00 | 0.00 | 61 | 1010.5 |
| 20260903221606 | 91 | 0 | 2.0 | 11.0 | 0.00 | 0.00 | 0.00 | 62 | 1010.5 |
| 20260903220107 | 91 | 151 | 3.0 | 10.0 | 0.00 | 0.00 | 0.00 | 61 | 1010.6 |
| 20260903214600 | 92 | 107 | 2.0 | 15.0 | 0.00 | 0.00 | 0.00 | 60 | 1010.7 |
| 20260903213102 | 91 | 0 | 3.0 | 12.0 | 0.00 | 0.00 | 0.00 | 61 | 1010.6 |
| 20260903211600 | 91 | 0 | 2.0 | 13.0 | 0.00 | 0.00 | 0.00 | 62 | 1010.9 |
| 20260903204605 | 91 | 114 | 3.0 | 11.0 | 0.00 | 0.00 | 0.00 | 63 | 1011.1 |
| 20260903203102 | 91 | 0 | 2.0 | 13.0 | 0.00 | 0.00 | 0.00 | 62 | 1011.3 |
| 20260903201603 | 92 | 105 | 2.0 | 9.0 | 0.00 | 0.00 | 0.00 | 60 | 1011.3 |
| 20260903200112 | 90 | 102 | 2.0 | 8.0 | 0.00 | 0.00 | 0.00 | 65 | 1011.4 |
| 20260903194606 | 90 | 143 | 0.0 | 9.0 | 0.00 | 0.00 | 0.00 | 65 | 1011.7 |
| 20260903193118 | 89 | 0 | 1.0 | 7.0 | 0.00 | 0.00 | 0.00 | 66 | 1011.9 |
| 20260903191607 | 88 | 0 | 1.0 | 8.0 | 0.00 | 0.00 | 0.00 | 67 | 1012.1 |
| 20260903190105 | 88 | 0 | 2.0 | 8.0 | 0.00 | 0.00 | 0.00 | 65 | 1012.5 |
| 20260903184605 | 89 | 0 | 2.0 | 10.0 | 0.00 | 0.00 | 0.00 | 64 | 1012.7 |
| 20260903183106 | 90 | 108 | 2.0 | 12.0 | 0.00 | 0.00 | 0.00 | 63 | 1012.8 |
| 20260903181607 | 90 | 92 | 1.0 | 12.0 | 0.00 | 0.00 | 0.00 | 63 | 1012.9 |
| 20260903180113 | 90 | 133 | 1.0 | 9.0 | 0.00 | 0.00 | 0.00 | 64 | 1013.0 |
| 20260903174600 | 89 | 96 | 3.0 | 10.0 | 0.00 | 0.00 | 0.00 | 64 | 1013.2 |
| 20260903173107 | 89 | 107 | 1.0 | 7.0 | 0.00 | 0.00 | 0.00 | 65 | 1013.3 |
| 20260903171559 | 88 | 205 | 0.0 | 6.0 | 0.00 | 0.00 | 0.00 | 66 | 1013.5 |
| 20260903170219 | 87 | 211 | 0.0 | 8.0 | 0.00 | 0.00 | 0.00 | 68 | 1013.5 |
| 20260903164603 | 86 | 96 | 1.0 | 6.0 | 0.00 | 0.00 | 0.00 | 70 | 1013.5 |
| 20260903163103 | 85 | 0 | 1.0 | 6.0 | 0.00 | 0.00 | 0.00 | 71 | 1013.4 |
| 20260903161622 | 84 | 0 | 0.0 | 4.0 | 0.00 | 0.00 | 0.00 | 73 | 1013.5 |
| 20260903160101 | 83 | 0 | 0.0 | 3.0 | 0.00 | 0.00 | 0.00 | 76 | 1013.5 |
| 20260903154601 | 82 | 0 | 0.0 | 4.0 | 0.00 | 0.00 | 0.00 | 77 | 1013.5 |
| 20260903153100 | 81 | 108 | 0.0 | 3.0 | 0.00 | 0.00 | 0.00 | 78 | 1013.5 |
| 20260903151557 | 80 | 0 | 1.0 | 7.0 | 0.00 | 0.00 | 0.00 | 79 | 1013.6 |
| 20260903144602 | 80 | 155 | 0.0 | 6.0 | 0.00 | 0.00 | 0.00 | 80 | 1013.6 |
| 20260903143103 | 79 | 0 | 0.0 | 4.0 | 0.00 | 0.00 | 0.00 | 80 | 1013.5 |
| 20260903141559 | 78 | 0 | 1.0 | 7.0 | 0.00 | 0.00 | 0.00 | 81 | 1013.4 |